When you browse on this site, cookies collect data to enhance your experience and personalize the content and advertising you see.
Visit our Privacy Policy to learn more. By continuing to use the site, you agree to this use of cookies and data.
  • In United Kingdom
  • List of Countries
  • For 7 days
  • Water Temperature
  • Satellite Maps
  • Weather Map
  • Weather Widgets
  • user-avatar
    Login

    Hourly Weather San Pedro Tapanatepec

    Today, 26 March, Tuesday

    Time Temperature Precipitation Wind Pressure Humidity
    00:00 +29°C° 0 mm 3 mps 757 mmHg 61%
    01:00 +28°C° 0 mm 3 mps 757 mmHg 61%
    02:00 +28°C° 0 mm 3 mps 757 mmHg 61%
    03:00 +28°C° 0 mm 3 mps 757 mmHg 61%
    04:00 +27°C° 0 mm 4 mps 757 mmHg 61%
    05:00 +27°C° 0 mm 4 mps 757 mmHg 61%
    06:00 +27°C° 0 mm 4 mps 757 mmHg 61%
    07:00 +29°C° 0 mm 4 mps 757 mmHg 57%
    08:00 +30°C° 0 mm 5 mps 758 mmHg 52%
    09:00 +32°C° 0 mm 5 mps 758 mmHg 47%
    10:00 +34°C° 0 mm 5 mps 758 mmHg 41%
    11:00 +36°C° 0 mm 6 mps 758 mmHg 36%
    12:00 +38°C° 0 mm 6 mps 757 mmHg 31%
    13:00 +38°C° 0 mm 6 mps 757 mmHg 31%
    14:00 +39°C° 0 mm 6 mps 756 mmHg 31%
    15:00 +39°C° 0 mm 6 mps 755 mmHg 32%
    16:00 +36°C° 0 mm 7 mps 755 mmHg 37%
    17:00 +34°C° 0 mm 7 mps 755 mmHg 43%
    18:00 +32°C° 0 mm 7 mps 755 mmHg 48%
    19:00 +32°C° 0 mm 7 mps 756 mmHg 51%
    20:00 +30°C° 0 mm 7 mps 757 mmHg 53%
    21:00 +29°C° 0 mm 7 mps 758 mmHg 56%
    22:00 +29°C° 0 mm 7 mps 758 mmHg 56%
    23:00 +29°C° 0 mm 6 mps 758 mmHg 56%

    Tomorrow, 27 March, Wednesday

    Time Temperature Precipitation Wind Pressure Humidity
    00:00 +29°C° 0 mm 6 mps 759 mmHg 56%
    01:00 +29°C° 0 mm 6 mps 758 mmHg 57%
    02:00 +28°C° 0 mm 6 mps 758 mmHg 58%
    03:00 +28°C° 0 mm 7 mps 757 mmHg 58%
    04:00 +28°C° 0 mm 6 mps 757 mmHg 58%
    05:00 +28°C° 0 mm 6 mps 758 mmHg 58%
    06:00 +27°C° 0 mm 6 mps 758 mmHg 58%
    07:00 +29°C° 0 mm 6 mps 758 mmHg 55%
    08:00 +30°C° 0 mm 7 mps 759 mmHg 51%
    09:00 +32°C° 0 mm 7 mps 759 mmHg 48%
    10:00 +33°C° 0 mm 7 mps 759 mmHg 43%
    11:00 +35°C° 0 mm 7 mps 759 mmHg 39%
    12:00 +37°C° 0 mm 8 mps 758 mmHg 35%
    13:00 +37°C° 0 mm 8 mps 757 mmHg 33%
    14:00 +38°C° 0 mm 7 mps 757 mmHg 32%
    15:00 +38°C° 0 mm 7 mps 756 mmHg 30%
    16:00 +35°C° 0 mm 7 mps 756 mmHg 37%
    17:00 +33°C° 0 mm 8 mps 756 mmHg 44%
    18:00 +31°C° 0 mm 8 mps 756 mmHg 50%
    19:00 +30°C° 0 mm 7 mps 757 mmHg 52%
    20:00 +29°C° 0 mm 7 mps 757 mmHg 54%
    21:00 +28°C° 0 mm 6 mps 758 mmHg 57%
    22:00 +28°C° 0 mm 6 mps 758 mmHg 56%
    23:00 +28°C° 0 mm 6 mps 759 mmHg 55%

    Day after tomorrow, 28 March, Thursday

    Time Temperature Precipitation Wind Pressure Humidity
    00:00 +27°C° 0 mm 6 mps 759 mmHg 54%
    01:00 +27°C° 0 mm 6 mps 759 mmHg 56%
    02:00 +27°C° 0 mm 5 mps 758 mmHg 57%
    03:00 +26°C° 0 mm 5 mps 758 mmHg 59%
    04:00 +26°C° 0 mm 5 mps 758 mmHg 58%
    05:00 +26°C° 0 mm 5 mps 758 mmHg 58%
    06:00 +25°C° 0 mm 5 mps 758 mmHg 58%
    07:00 +27°C° 0 mm 5 mps 758 mmHg 49%
    08:00 +29°C° 0 mm 5 mps 759 mmHg 41%
    09:00 +30°C° 0 mm 5 mps 760 mmHg 32%
    10:00 +33°C° 0 mm 5 mps 759 mmHg 28%
    11:00 +36°C° 0 mm 4 mps 759 mmHg 24%
    12:00 +38°C° 0 mm 4 mps 758 mmHg 20%
    13:00 +38°C° 0 mm 4 mps 757 mmHg 20%
    14:00 +38°C° 0 mm 4 mps 756 mmHg 20%
    15:00 +39°C° 0 mm 3 mps 755 mmHg 20%
    16:00 +37°C° 0 mm 4 mps 755 mmHg 25%
    17:00 +36°C° 0 mm 4 mps 755 mmHg 29%
    18:00 +34°C° 0 mm 4 mps 755 mmHg 34%
    19:00 +32°C° 0 mm 4 mps 756 mmHg 42%
    20:00 +29°C° 0 mm 4 mps 757 mmHg 49%
    21:00 +28°C° 0 mm 3 mps 757 mmHg 57%
    22:00 +27°C° 0 mm 3 mps 757 mmHg 60%
    23:00 +27°C° 0 mm 3 mps 758 mmHg 62%

    29 March, Friday

    Time Temperature Precipitation Wind Pressure Humidity
    00:00 +26°C° 0 mm 3 mps 758 mmHg 65%
    01:00 +26°C° 0 mm 3 mps 757 mmHg 66%
    02:00 +25°C° 0 mm 2 mps 757 mmHg 67%
    03:00 +25°C° 0 mm 2 mps 756 mmHg 68%
    04:00 +25°C° 0 mm 2 mps 756 mmHg 68%
    05:00 +25°C° 0 mm 2 mps 756 mmHg 69%
    06:00 +24°C° 0 mm 2 mps 756 mmHg 69%
    07:00 +27°C° 0 mm 2 mps 757 mmHg 60%
    08:00 +30°C° 0 mm 1 mps 757 mmHg 51%
    09:00 +32°C° 0 mm 1 mps 757 mmHg 42%
    10:00 +35°C° 0 mm 2 mps 757 mmHg 37%
    11:00 +36°C° 0 mm 2 mps 756 mmHg 32%
    12:00 +38°C° 0 mm 3 mps 756 mmHg 27%
    13:00 +38°C° 0 mm 3 mps 755 mmHg 27%
    14:00 +38°C° 0 mm 3 mps 754 mmHg 26%
    15:00 +38°C° 0 mm 4 mps 753 mmHg 26%
    16:00 +36°C° 0 mm 3 mps 753 mmHg 32%
    17:00 +35°C° 0 mm 3 mps 754 mmHg 37%
    18:00 +33°C° 0 mm 3 mps 754 mmHg 43%
    19:00 +31°C° 0 mm 2 mps 754 mmHg 50%
    20:00 +29°C° 0 mm 1 mps 755 mmHg 57%
    21:00 +26°C° 0 mm 0 mps 756 mmHg 64%
    22:00 +25°C° 0 mm 0 mps 756 mmHg 65%
    23:00 +25°C° 0 mm 0 mps 756 mmHg 66%

    30 March, Saturday

    Time Temperature Precipitation Wind Pressure Humidity
    00:00 +27°C° 0 mm 1 mps 756 mmHg 67%
    01:00 +26°C° 0 mm 1 mps 755 mmHg 68%
    02:00 +26°C° 0 mm 1 mps 755 mmHg 69%
    03:00 +26°C° 0 mm 1 mps 754 mmHg 70%
    04:00 +25°C° 0 mm 1 mps 754 mmHg 69%
    05:00 +25°C° 0 mm 1 mps 755 mmHg 69%
    06:00 +25°C° 0 mm 1 mps 755 mmHg 68%
    07:00 +27°C° 0 mm 1 mps 755 mmHg 62%
    08:00 +29°C° 0 mm 1 mps 755 mmHg 55%
    09:00 +32°C° 0 mm 1 mps 756 mmHg 48%
    10:00 +34°C° 0 mm 2 mps 755 mmHg 45%
    11:00 +35°C° 0 mm 3 mps 755 mmHg 42%
    12:00 +36°C° 0 mm 3 mps 754 mmHg 40%
    13:00 +36°C° 0 mm 4 mps 754 mmHg 41%
    14:00 +36°C° 0 mm 4 mps 753 mmHg 42%
    15:00 +36°C° 0 mm 4 mps 752 mmHg 44%
    16:00 +34°C° 0 mm 3 mps 752 mmHg 50%
    17:00 +33°C° 0 mm 3 mps 752 mmHg 55%
    18:00 +31°C° 0 mm 2 mps 753 mmHg 61%
    19:00 +30°C° 0 mm 2 mps 753 mmHg 67%
    20:00 +29°C° 0 mm 1 mps 754 mmHg 73%
    21:00 +25°C° 0 mm 0 mps 754 mmHg 78%
    22:00 +25°C° 0 mm 0 mps 754 mmHg 79%
    23:00 +27°C° 0 mm 1 mps 754 mmHg 79%

    31 March, Sunday

    Time Temperature Precipitation Wind Pressure Humidity
    00:00 +27°C° 0 mm 1 mps 754 mmHg 80%
    01:00 +27°C° 0 mm 1 mps 754 mmHg 78%
    02:00 +26°C° 0 mm 1 mps 754 mmHg 76%
    03:00 +26°C° 0 mm 1 mps 753 mmHg 75%
    04:00 +26°C° 0 mm 1 mps 754 mmHg 75%
    05:00 +26°C° 0 mm 1 mps 754 mmHg 75%
    06:00 +26°C° 0 mm 1 mps 754 mmHg 75%
    07:00 +28°C° 0 mm 1 mps 754 mmHg 69%
    08:00 +30°C° 0 mm 1 mps 755 mmHg 62%
    09:00 +32°C° 0 mm 2 mps 755 mmHg 55%
    10:00 +34°C° 0 mm 2 mps 755 mmHg 52%
    11:00 +35°C° 0 mm 3 mps 754 mmHg 48%
    12:00 +36°C° 0 mm 4 mps 754 mmHg 45%
    13:00 +36°C° 0 mm 4 mps 753 mmHg 46%
    14:00 +36°C° 0 mm 4 mps 752 mmHg 47%
    15:00 +35°C° 0 mm 4 mps 752 mmHg 48%
    16:00 +34°C° 0 mm 3 mps 752 mmHg 53%
    17:00 +33°C° 0 mm 3 mps 752 mmHg 58%
    18:00 +31°C° 0 mm 2 mps 753 mmHg 63%
    19:00 +30°C° 0 mm 2 mps 753 mmHg 68%
    20:00 +29°C° 0 mm 1 mps 754 mmHg 73%
    21:00 +26°C° 0 mm 0 mps 755 mmHg 78%
    22:00 +25°C° 0 mm 0 mps 755 mmHg 79%
    23:00 +27°C° 0 mm 1 mps 755 mmHg 80%
    Show more